{"data":{"norad_id":56526,"epoch":"2026-05-24T17:22:11.145504Z","epoch_age_seconds":98621,"freshness":"FRESH","line1":"1 56526U 23065Z   26144.72374011  .00000314  00000+0  20943-4 0  9991","line2":"2 56526  43.0043 143.4557 0001998 275.1132  84.9492 15.27577895168228","mean_motion":15.27577895,"eccentricity":0.0001998,"inclination_deg":43.0043,"raan_deg":143.4557,"arg_perigee_deg":275.1132,"mean_anomaly_deg":84.9492,"bstar":2.0943e-5,"rev_number":16822,"period_min":94.266878613087,"perigee_km":481.68453293281,"apogee_km":484.42626541552,"semimajor_km":6861.1923991742,"source":"CELESTRAK","updated_at":"2026-05-25T13:38:18.110917Z"}}